Location: Unspecified
(0.0000°N, 0.0000°E)
Time: 09:18:50
(UTC+00:00)

Explorer 11/Cluster Stage 4 - Pass Details

Date: 19 July 2020
Orbit: 467 x 1259 km, 28.8° (Epoch: 03 August)

Event Time Altitude Azimuth Distance (km) Brightness Sun altitude
Rises 13:37:12 0° 329° (NNW) 3,381 10.3 59.7°
Reaches altitude 10° 13:40:24 10° 348° (NNW) 2,602 9.8 59.1°
Maximum altitude 13:44:43 19° 30° (NNE) 2,224 9.2 58.3°
Drops below altitude 10° 13:49:34 10° 72° (ENE) 2,977 9.5 57.4°
Sets 13:53:34 0° 89° (E) 4,057 10.0 56.6°
